Tracking 19644 objects as of 24-Apr-2019
HD Live streaming from Space Station
objects crossing your sky now

INTELSAT 4-F3

Track INTELSAT 4-F3 now!
INTELSAT 4-F3 is classified as:


NORAD ID: 5709
Int'l Code: 1971-116A
Perigee: 35,914.8 km
Apogee: 36,038.3 km
Inclination: 12.3 °
Period: 1,445.4 minutes
Semi major axis: 42347 km
RCS: 2.3186 m2 (large)
Launch date: December 20, 1971
Source: International Telecommunications Satellite Organization (ITSO)
Launch site: AIR FORCE EASTERN TEST RANGE (AFETR)
aabbcc
Your satellite tracking list
Your tracking list is empty




NASA's NSSDC Master Catalog

Two Line Element Set (TLE):
1  5709U 71116A   19113.46854719 -.00000342 +00000-0 +00000-0 0  9996
2  5709 012.2590 318.7343 0014586 039.0868 145.3315 00.99623148092857
Source of the keplerian elements: AFSPC